Weather History for Clinton, BC

Change the Weather History Date:

Monday, August 26, 2013

  Actual Average Record
Temperature  
Mean Temperature 60 °F -  
Max Temperature 71 °F 69 °F 91 °F (1996)
Min Temperature 50 °F 43 °F 33 °F (2008)
Degree Days  
Heating Degree Days 4    
Growing Degree Days 10 (Base 50)    
Moisture  
Dew Point 40 °F    
Average Humidity 47    
Maximum Humidity 62    
Minimum Humidity 20    
Precipitation  
Precipitation 0.00 in - - ()
Sea Level Pressure  
Sea Level Pressure 29.84 in    
Wind  
Wind Speed 5 mph ()    
Max Wind Speed 14 mph    
Max Gust Speed 22 mph    
Visibility 9.0 miles    
Events Rain    
Averages and records for this station are not official NWS values.
T = Trace of Precipitation, MM = Missing Value Source: Averaged Metar Reports

Daily Weather History Graph

Daily Weather History Graph

Search for Another Location

Airport:

Trip Planner

Search our weather history database for the weather conditions in past years. The results will help you decide how hot, cold, wet, or windy it might be!

Date:

Astronomy

Aug. 26, 2013 Rise Set
Actual Time 6:10 AM PDT 8:03 PM PDT
Civil Twilight 5:35 AM PDT 8:39 PM PDT
Nautical Twilight 4:51 AM PDT 9:22 PM PDT
Astronomical Twilight 4:01 AM PDT 10:11 PM PDT
Moon 10:30 PM PDT (8/26) 1:03 PM PDT (8/26)
Length of Visible Light 15h 04m
Length of Day
13h 53m
Waning Gibbous, 65% of the Moon is Illuminated
Aug 26
Waning Gibbous
Aug 28
Last Quarter
Sep 5
New
Sep 12
First Quarter
Sep 19
Full

Hourly Weather History & Observations

Time (PDT) Temp. Dew Point Humidity Pressure Visibility Wind Dir Wind Speed Gust Speed Precip Events Conditions
12:00 AM 57.2 °F 35.6 °F 44% 29.83 in 9.0 mi SW 3.5 mph - N/A   Partly Cloudy
1:00 AM 55.4 °F 35.6 °F 47% 29.82 in 9.0 mi West 3.5 mph - N/A   Scattered Clouds
1:32 AM 57.2 °F 35.6 °F 44% 29.85 in 9.0 mi SSW 4.6 mph - N/A Rain Light Rain
2:00 AM 55 °F 40 °F 46% 29.83 in 9 mi WSW 4.6 mph - - Rain Light Rain
2:00 AM 55.4 °F 41.0 °F 58% 29.83 in 9.0 mi SW 6.9 mph - N/A Rain Light Rain
2:17 AM 55.4 °F 41.0 °F 58% 29.86 in 9.0 mi West 4.6 mph - N/A   Mostly Cloudy
2:38 AM 57.2 °F 39.2 °F 51% 29.85 in 9.0 mi West 5.8 mph - N/A Rain Light Rain
2:40 AM 57.2 °F 39.2 °F 51% 29.85 in 9.0 mi West 4.6 mph - N/A   Partly Cloudy
2:44 AM 55.4 °F 39.2 °F 54% 29.85 in 9.0 mi West 4.6 mph - N/A Rain Light Rain
3:00 AM 55.4 °F 41.0 °F 58% 29.82 in 9.0 mi WSW 2.3 mph - N/A Rain Light Rain
3:04 AM 55.4 °F 41.0 °F 58% 29.85 in 9.0 mi East 2.3 mph - N/A   Scattered Clouds
4:00 AM 51.8 °F 39.2 °F 62% 29.83 in 9.0 mi Calm Calm - N/A   Clear
5:00 AM 50 °F 37 °F 51% 29.83 in 9 mi Calm Calm - -  
5:00 AM 50.0 °F 37.4 °F 62% 29.83 in 9.0 mi Calm Calm - N/A   Clear
6:00 AM 51.8 °F 37.4 °F 58% 29.85 in 9.0 mi Calm Calm - N/A   Scattered Clouds
7:00 AM 53.6 °F 39.2 °F 58% 29.86 in 9.0 mi South 3.5 mph - N/A   Overcast
8:00 AM 56 °F 41 °F 45% 29.86 in 9 mi South 5.8 mph - -   Overcast
8:00 AM 55.4 °F 41.0 °F 58% 29.86 in 9.0 mi South 6.9 mph - N/A   Overcast
9:00 AM 59.0 °F 42.8 °F 55% 29.87 in 9.0 mi South 4.6 mph - N/A   Mostly Cloudy
10:00 AM 62.6 °F 46.4 °F 55% 29.86 in 9.0 mi SSE 12.7 mph - N/A   Partly Cloudy
11:00 AM 64 °F 44 °F 38% 29.85 in 9 mi SSE 8.1 mph - -  
11:00 AM 64.4 °F 44.6 °F 49% 29.85 in 9.0 mi SSE 9.2 mph - N/A   Partly Cloudy
12:00 PM 62.6 °F 44.6 °F 52% 29.84 in 9.0 mi South 10.4 mph - N/A   Mostly Cloudy
1:00 PM 64.4 °F 42.8 °F 45% 29.83 in 9.0 mi SSE 6.9 mph - N/A   Mostly Cloudy
2:00 PM 67 °F 43 °F 31% 29.82 in 9 mi South 10.4 mph - -   Overcast
2:00 PM 68.0 °F 42.8 °F 40% 29.82 in 9.0 mi South 9.2 mph 19.6 mph N/A   Overcast
3:00 PM 68.0 °F 41.0 °F 37% 29.82 in 9.0 mi South 13.8 mph 20.7 mph N/A   Mostly Cloudy
4:00 PM 68.0 °F 37.4 °F 33% 29.81 in 9.0 mi SSE 10.4 mph 17.3 mph N/A   Mostly Cloudy
5:00 PM 68 °F 37 °F 20% 29.81 in 9 mi South 10.4 mph - -  
5:00 PM 68.0 °F 37.4 °F 33% 29.81 in 9.0 mi South 12.7 mph - N/A   Mostly Cloudy
6:00 PM 66.2 °F 37.4 °F 35% 29.82 in 9.0 mi South 13.8 mph 21.9 mph N/A   Overcast
7:00 PM 64.4 °F 39.2 °F 40% 29.82 in 9.0 mi South 8.1 mph 17.3 mph N/A   Scattered Clouds
8:00 PM 62 °F 39 °F 31% 29.82 in 9 mi South 9.2 mph - -  
8:00 PM 62.6 °F 39.2 °F 42% 29.82 in 9.0 mi South 10.4 mph 19.6 mph N/A   Partly Cloudy
9:00 PM 60.8 °F 41.0 °F 48% 29.82 in 9.0 mi SSE 11.5 mph 19.6 mph N/A   Scattered Clouds
10:00 PM 59.0 °F 41.0 °F 51% 29.83 in 9.0 mi SSE 11.5 mph 21.9 mph N/A   Partly Cloudy
11:00 PM 57 °F 41 °F 43% 29.84 in 9 mi South 10.4 mph - -  
11:00 PM 57.2 °F 41.0 °F 55% 29.84 in 9.0 mi South 10.4 mph 20.7 mph N/A   Partly Cloudy